Wind_Speed
3 3 3 5 6 11 10 12 7 3 10 9 12 13 15 13 8 8 8 8 5 8 10 11 12 12 14 16 17 17 17 17 17 17 19 20 20 20 20 19 19 20 21 21
3 2 5 10 12 14 16 17 16 17 16 4 3 11 11 8 8 8 6 5 6 8 9 10 11 13 15 16 17 17 17 17 18 18 18 18 18 18 18 19 19 19 19 20
3 2 5 10 17 18 14 11 13 16 12 11 12 14 15 11 10 9 6 4 5 6 8 9 11 12 14 15 16 17 18 19 19 19 19 18 17 17 17 18 18 19 20 20
3 3 5 3 4 0 14 16 12 14 7 2 5 7 5 6 8 5 3 3 4 5 6 7 8 9 11 13 16 17 18 19 20 20 19 18 17 17 18 18 18 18 18 18
3 5 12 6 3 3 4 5 16 14 11 11 5 6 6 9 6 3 3 5 5 6 6 7 8 10 11 12 14 16 19 20 21 21 22 21 21 20 20 21 21 21 21 21
3 4 5 3 4 2 3 5 5 8 9 14 12 6 5 16 8 3 4 5 4 5 6 7 9 10 11 12 13 15 17 19 21 22 23 23 23 22 22 21 21 21 21 21
9 5 7 7 9 7 3 2 5 8 11 16 9 1 8 8 5 6 6 6 5 5 5 6 8 9 11 13 16 17 18 19 20 21 23 24 25 24 24 23 23 22 21 20
6 6 8 12 7 5 2 5 8 8 10 12 7 5 4 4 4 5 6 6 6 5 5 5 7 9 11 13 16 18 20 20 21 21 22 22 23 23 24 24 24 23 21 20
7 4 4 15 2 5 2 8 9 9 9 8 6 4 5 5 4 5 5 5 5 5 6 8 10 12 14 16 18 19 21 23 24 24 23 23 23 23 22 22 22 22 22 21
1 5 13 11 10 9 7 7 8 7 8 8 6 6 6 6 5 5 4 5 6 8 9 9 11 13 15 17 20 22 23 24 24 25 26 26 24 22 22 22 22 22 21 21
8 13 10 13 13 11 9 9 10 9 8 7 6 6 6 6 5 4 5 6 8 9 11 13 15 16 17 19 21 23 24 24 24 25 25 25 24 23 23 20 21 22 22 23
6 3 5 2 3 12 13 11 10 9 8 7 6 6 5 4 5 5 5 8 10 12 14 16 18 20 20 20 21 22 22 23 23 24 24 23 25 27 26 27 25 23 24 25
11 7 5 7 6 8 10 10 10 8 7 6 5 4 4 4 5 8 10 11 13 16 18 20 21 21 19 19 20 20 22 22 23 23 24 26 28 30 34 31 29 29 29 29
10 9 5 7 4 9 10 9 9 8 7 6 4 3 5 7 10 11 13 15 18 20 22 22 23 22 20 21 22 22 22 22 23 23 24 27 28 30 32 34 36 35 31 32
9 9 6 6 9 10 10 8 7 6 5 3 4 6 8 10 12 15 18 20 21 23 24 24 26 26 24 23 24 24 24 24 23 25 26 27 29 30 31 33 34 35 35 33
9 8 8 10 10 10 9 7 7 6 3 7 8 9 12 15 17 18 19 21 22 24 26 27 29 28 28 26 26 27 26 24 24 26 28 29 30 31 32 32 33 34 34 34
13 11 12 11 10 9 8 7 6 7 8 8 10 12 15 18 21 23 24 25 27 29 30 31 31 29 27 27 28 29 27 26 25 28 30 31 32 33 34 34 34 34 34 33
9 10 11 10 10 10 9 7 6 7 9 11 14 18 20 22 24 26 28 29 31 32 32 32 29 26 26 27 27 28 27 27 29 32 34 34 35 34 35 35 35 35 35 31
11 10 11 11 9 7 5 5 7 10 13 16 20 22 24 26 27 28 29 32 33 34 34 30 26 26 26 25 23 24 27 30 34 36 37 37 36 36 35 35 34 34 33 34
13 12 11 8 5 4 5 9 14 18 19 20 22 25 26 27 28 30 30 34 33 32 31 25 22 23 24 25 25 28 31 34 36 37 36 35 35 36 35 34 34 35 33 34
12 10 8 6 6 9 13 16 20 22 23 24 25 27 29 31 32 32 34 36 36 29 25 24 25 27 29 30 31 32 33 35 36 37 36 35 33 34 33 33 34 33 34 35
14 11 10 12 15 18 19 22 25 27 27 27 28 30 31 33 34 36 37 38 37 30 26 27 29 30 32 34 36 37 37 36 35 33 32 32 31 31 33 34 33 32 33 34
18 17 18 20 22 24 27 30 31 30 30 30 31 29 28 29 31 33 37 37 33 32 31 34 35 36 37 35 36 36 36 35 34 31 31 31 31 33 31 33 33 33 32 35
24 26 28 28 30 33 38 38 34 33 34 34 31 28 27 29 31 32 33 32 31 31 33 36 38 39 35 33 34 34 33 30 30 30 32 32 31 31 31 31 32 32 34 35
21 25 28 31 35 38 40 38 37 38 38 36 31 29 28 29 32 35 34 35 34 34 36 37 36 34 32 32 32 31 30 30 30 30 30 30 30 28 28 28 32 33 37 37
26 29 31 34 36 36 36 36 37 38 34 33 32 32 33 34 36 38 38 36 35 33 31 31 30 30 31 31 30 29 29 30 31 31 28 26 26 25 28 32 37 36 35 34
30 31 33 35 36 34 34 32 30 31 31 33 35 37 38 40 39 37 36 34 32 31 30 31 30 29 29 28 29 29 29 30 29 27 24 25 24 27 33 33 32 31 27 25
Wind_Direction
270 256 275 272 248 211 208 228 236 254 227 251 204 202 202 207 207 200 203 214 260 294 308 318 326 330 333 337 338 336 331 326 320 317 311 307 304 299 294 290 292 292 288 283
273 245 260 266 259 247 234 244 258 261 265 262 228 197 178 199 194 195 199 215 265 296 311 325 331 338 342 345 347 347 345 339 334 330 323 317 312 307 303 298 294 292 291 289
230 188 277 267 239 228 228 228 239 245 258 254 230 203 225 215 194 186 195 238 275 299 312 324 336 346 348 349 352 354 354 351 348 345 338 328 322 316 310 306 302 299 296 291
305 265 243 67 121 177 224 234 241 249 271 251 236 228 218 200 194 199 244 296 317 321 319 331 346 353 354 358 359 359 357 354 352 351 348 341 332 325 320 316 312 307 302 298
266 249 307 220 207 216 212 267 227 228 219 214 189 159 207 186 181 199 266 287 297 309 321 333 341 345 353 359 357 358 358 357 355 350 349 347 343 336 327 318 313 308 304 301
157 249 256 69 138 129 134 275 158 205 217 183 166 199 217 181 194 238 275 276 287 303 317 326 329 337 345 349 349 349 350 352 352 350 348 345 343 339 335 330 324 319 314 308
220 248 282 123 144 149 236 37 156 182 178 177 194 68 130 171 234 259 260 257 260 272 287 305 320 331 336 339 341 343 345 346 346 347 346 345 342 342 337 333 327 325 322 321
208 221 251 149 139 220 37 143 144 144 153 166 163 154 167 213 241 256 266 278 282 281 285 302 316 323 328 330 334 337 339 341 342 342 341 341 340 340 338 336 333 330 326 324
219 238 111 185 223 196 216 185 184 178 173 175 177 189 205 197 208 227 236 252 275 294 305 312 315 322 325 328 332 335 336 337 337 336 337 336 333 334 334 334 334 332 329 329
314 217 232 231 228 233 216 210 188 186 189 197 191 204 198 196 201 217 252 277 296 310 315 316 315 323 325 327 329 330 330 329 329 328 328 328 327 327 327 329 327 326 326 325
252 277 258 255 236 220 208 200 197 200 207 209 204 198 193 200 212 228 261 284 299 309 313 316 318 322 325 324 325 325 326 328 327 328 328 326 324 323 320 316 315 315 317 317
250 339 250 344 230 222 206 204 203 208 210 213 200 192 198 201 232 261 284 299 306 308 310 313 315 318 320 320 321 321 322 325 327 329 329 326 325 324 324 322 320 312 302 300
258 250 238 248 231 194 182 192 200 198 193 189 192 195 226 251 277 294 305 306 307 310 312 313 313 313 315 312 312 313 314 318 318 322 324 324 324 323 324 324 322 322 320 316
235 241 228 217 206 193 188 183 182 178 184 188 206 243 278 295 303 307 306 307 310 309 310 310 309 309 309 305 303 306 308 311 312 317 319 318 318 318 317 317 318 319 317 314
222 208 216 180 173 170 176 172 162 160 184 209 270 293 300 303 304 306 308 312 311 309 308 308 306 307 307 301 297 300 304 308 311 313 316 317 317 317 315 313 313 311 309 306
200 195 185 165 163 166 160 163 180 197 244 282 282 290 299 302 303 303 306 310 308 307 306 303 302 305 303 300 295 293 297 303 308 312 315 315 315 314 314 313 312 314 312 309
162 166 163 160 159 159 170 188 222 237 250 270 287 293 298 301 301 305 310 312 308 306 308 307 305 306 303 298 292 286 290 297 303 307 311 313 312 312 315 315 314 314 311 307
190 177 175 177 180 189 198 214 235 264 282 293 300 300 300 300 301 304 308 310 308 306 307 307 308 306 302 299 292 285 288 295 300 303 307 309 309 309 310 310 310 309 312 306
171 173 177 180 183 190 213 252 278 289 295 301 299 298 298 297 299 302 305 305 305 306 310 313 307 301 302 304 300 290 290 295 299 302 305 305 305 306 307 307 305 302 301 303
180 180 177 181 194 231 272 294 300 300 301 302 299 296 297 297 298 298 300 299 297 301 309 304 297 296 300 301 300 297 296 298 300 302 301 301 301 303 304 303 300 299 301 305
186 188 199 222 252 281 292 297 300 299 298 295 294 294 296 298 297 297 295 296 299 305 304 298 297 298 301 305 305 301 299 298 298 298 297 298 298 299 301 302 300 299 301 302
202 217 243 256 268 280 290 298 296 298 300 299 299 300 301 301 303 300 297 294 299 296 293 294 297 301 303 303 299 298 297 297 296 293 291 293 293 296 299 302 302 303 304 304
231 249 261 265 275 283 289 299 303 300 298 297 297 297 299 300 300 299 299 300 296 292 294 295 298 301 304 303 298 296 295 295 292 289 287 292 292 294 299 301 307 306 305 306
256 264 271 277 281 281 286 295 298 296 295 297 294 292 295 299 301 300 304 304 298 292 288 289 294 299 302 297 297 296 295 292 290 285 288 291 292 297 303 307 306 304 305 305
275 276 276 276 278 280 285 290 294 294 299 300 291 290 295 300 302 305 302 297 293 291 291 292 295 297 297 298 299 297 295 291 289 291 293 294 297 300 304 306 309 307 299 302
279 277 278 279 281 285 288 288 291 297 295 291 287 289 295 300 302 303 301 298 298 297 296 297 299 300 300 301 299 296 293 292 292 293 295 298 304 306 306 302 302 305 306 307
281 282 283 286 289 293 296 299 296 294 294 292 290 294 297 297 299 299 297 295 294 294 296 299 300 300 300 296 295 294 290 290 292 295 296 301 303 299 299 303 306 308 310 311
Height
1508 1511 1513 1511 1509 1513 1518 1503 1499 1491 1496 1494 1499 1503 1507 1511 1513 1515 1516 1518 1519 1518 1517 1515 1514 1511 1508 1505 1503 1500 1497 1495 1492 1489 1487 1484 1482 1480 1478 1477 1476 1474 1472 1471
1514 1512 1513 1512 1507 1506 1505 1505 1501 1496 1495 1497 1499 1504 1508 1510 1512 1513 1515 1516 1516 1517 1516 1512 1512 1509 1506 1503 1501 1498 1495 1492 1489 1485 1483 1480 1478 1476 1474 1472 1470 1469 1467 1466
1502 1512 1510 1502 1489 1494 1494 1493 1496 1497 1492 1493 1496 1501 1505 1507 1510 1512 1514 1515 1515 1514 1513 1511 1509 1506 1504 1503 1500 1497 1494 1490 1486 1483 1480 1478 1475 1473 1471 1468 1466 1464 1463 1461
1506 1508 1503 1482 1490 1490 1483 1487 1490 1492 1493 1496 1499 1503 1506 1509 1511 1513 1514 1514 1513 1512 1511 1509 1507 1505 1503 1501 1498 1496 1493 1489 1486 1482 1479 1476 1473 1470 1467 1465 1462 1460 1459 1457
1510 1499 1483 1479 1491 1493 1491 1480 1481 1484 1489 1494 1499 1503 1506 1508 1510 1511 1511 1511 1511 1511 1510 1509 1507 1505 1503 1500 1498 1496 1493 1489 1485 1482 1478 1474 1471 1467 1464 1461 1459 1456 1455 1452
1511 1508 1493 1484 1491 1493 1493 1487 1484 1487 1490 1494 1499 1499 1496 1502 1505 1507 1507 1508 1508 1508 1507 1507 1506 1504 1502 1500 1497 1495 1491 1488 1484 1481 1477 1473 1469 1465 1462 1458 1455 1452 1449 1447
1504 1503 1488 1487 1491 1493 1492 1486 1487 1488 1489 1494 1499 1500 1502 1503 1505 1507 1506 1506 1505 1504 1503 1503 1503 1502 1500 1498 1496 1492 1489 1486 1482 1479 1475 1471 1467 1464 1460 1456 1452 1449 1445 1443
1502 1500 1498 1487 1493 1492 1488 1488 1489 1491 1493 1494 1496 1497 1500 1502 1503 1505 1506 1506 1505 1504 1503 1501 1500 1498 1496 1494 1492 1489 1486 1483 1480 1476 1473 1469 1465 1462 1458 1454 1450 1446 1443 1439
1490 1484 1484 1484 1484 1485 1487 1488 1490 1490 1491 1494 1496 1497 1498 1498 1499 1501 1501 1502 1502 1502 1502 1500 1498 1496 1493 1491 1487 1484 1481 1479 1476 1473 1469 1466 1462 1458 1455 1452 1448 1444 1441 1437
1491 1476 1482 1484 1484 1484 1485 1487 1488 1491 1492 1492 1493 1495 1496 1496 1497 1498 1499 1500 1500 1499 1498 1496 1495 1493 1491 1487 1484 1481 1477 1474 1471 1468 1465 1462 1459 1455 1451 1448 1446 1443 1439 1435
1483 1479 1481 1479 1479 1482 1484 1484 1486 1487 1489 1491 1492 1493 1494 1495 1495 1495 1496 1496 1496 1495 1494 1493 1491 1489 1486 1483 1480 1477 1473 1470 1466 1463 1460 1456 1453 1450 1447 1445 1442 1439 1437 1433
1471 1473 1474 1475 1476 1477 1480 1482 1484 1486 1487 1489 1491 1492 1493 1493 1494 1494 1494 1493 1492 1491 1489 1488 1486 1485 1482 1479 1475 1472 1469 1466 1462 1458 1456 1452 1448 1444 1443 1439 1436 1434 1432 1429
1470 1472 1473 1473 1474 1475 1478 1479 1482 1484 1485 1487 1489 1490 1491 1492 1492 1491 1491 1490 1489 1487 1485 1482 1480 1478 1477 1473 1470 1467 1465 1462 1459 1454 1451 1448 1443 1439 1433 1431 1429 1426 1424 1422
1468 1470 1471 1471 1472 1474 1476 1477 1479 1481 1484 1485 1486 1487 1488 1489 1488 1488 1487 1486 1484 1482 1479 1477 1475 1473 1471 1468 1465 1462 1460 1457 1453 1449 1446 1443 1440 1435 1430 1425 1420 1417 1417 1414
1464 1466 1467 1468 1470 1472 1474 1476 1479 1482 1483 1484 1485 1486 1486 1485 1484 1484 1483 1481 1478 1475 1473 1471 1469 1467 1465 1462 1458 1455 1453 1450 1447 1443 1440 1437 1433 1429 1425 1420 1416 1412 1408 1407
1462 1464 1466 1468 1469 1470 1472 1476 1479 1481 1482 1483 1483 1483 1483 1482 1481 1479 1477 1476 1473 1470 1468 1466 1463 1461 1458 1455 1451 1448 1446 1443 1440 1437 1433 1430 1427 1422 1418 1414 1409 1405 1401 1397
1461 1464 1465 1467 1469 1471 1473 1476 1478 1479 1480 1480 1479 1478 1477 1477 1475 1473 1471 1469 1467 1463 1461 1458 1455 1453 1450 1447 1444 1440 1438 1436 1434 1430 1427 1423 1419 1415 1410 1406 1401 1398 1394 1391
1460 1460 1463 1465 1467 1470 1471 1473 1475 1476 1477 1476 1475 1474 1472 1470 1468 1466 1464 1462 1459 1456 1454 1451 1448 1444 1441 1439 1436 1433 1431 1429 1427 1423 1420 1416 1411 1407 1403 1399 1394 1390 1386 1384
1459 1460 1462 1464 1466 1468 1470 1470 1471 1471 1471 1471 1470 1468 1467 1464 1462 1460 1458 1455 1451 1447 1445 1443 1440 1437 1434 1432 1429 1426 1424 1421 1418 1414 1411 1407 1402 1399 1395 1391 1387 1383 1380 1376
1457 1459 1461 1462 1464 1466 1467 1467 1467 1466 1466 1465 1463 1461 1459 1457 1456 1453 1451 1446 1443 1440 1438 1435 1433 1430 1428 1425 1423 1419 1416 1413 1409 1405 1401 1397 1394 1390 1387 1383 1379 1375 1371 1368
1457 1460 1461 1461 1463 1463 1463 1463 1462 1460 1460 1459 1456 1454 1452 1449 1447 1445 1441 1436 1433 1433 1430 1427 1425 1423 1420 1418 1415 1411 1407 1403 1399 1395 1392 1388 1385 1381 1378 1374 1371 1367 1363 1359
1455 1456 1457 1457 1459 1459 1459 1458 1456 1454 1452 1450 1448 1446 1444 1440 1438 1434 1430 1427 1425 1425 1422 1419 1417 1415 1412 1409 1405 1401 1398 1394 1390 1386 1382 1379 1376 1372 1369 1365 1361 1358 1355 1350
1453 1453 1453 1453 1453 1452 1451 1449 1448 1446 1443 1441 1439 1437 1435 1432 1429 1425 1420 1419 1416 1414 1413 1409 1407 1405 1402 1398 1394 1391 1387 1384 1381 1378 1374 1371 1367 1364 1360 1356 1353 1349 1345 1341
1449 1449 1448 1447 1446 1444 1441 1440 1440 1437 1434 1431 1429 1428 1426 1423 1420 1417 1414 1410 1407 1405 1403 1400 1397 1394 1392 1387 1384 1381 1378 1375 1373 1370 1366 1362 1358 1355 1351 1348 1345 1341 1337 1333
1443 1442 1441 1439 1437 1435 1433 1431 1429 1425 1423 1421 1419 1419 1417 1414 1411 1407 1404 1400 1397 1395 1391 1389 1387 1384 1381 1377 1374 1372 1369 1366 1363 1361 1357 1353 1350 1347 1344 1341 1337 1334 1329 1324
1436 1434 1432 1430 1427 1425 1423 1422 1419 1417 1414 1411 1410 1408 1406 1404 1400 1396 1393 1389 1386 1384 1381 1378 1376 1374 1371 1368 1365 1362 1360 1357 1354 1351 1348 1345 1342 1339 1337 1334 1329 1324 1320 1315
1426 1425 1423 1420 1418 1416 1414 1412 1409 1407 1405 1403 1400 1399 1396 1393 1389 1386 1382 1379 1377 1375 1372 1369 1367 1365 1362 1359 1357 1354 1352 1349 1346 1343 1340 1338 1335 1332 1329 1324 1320 1316 1312 1308